NOAA 16 DEB, 42367

Orbit data source: Space-Track

NOAA 16 DEB, 42367 is space debris in SSO originally from a launch on Thu, 21 Sep 2000 UTC launched from the Air Force Western Test Range (AFWTR). Debris objects in space refer to the collection of defunct objects orbiting the Earth. Examples of debris include non-operational satellites, rocket bodies, and fragments generated from explosions, collisions, or faulty payload assembly.

Loading next visibility...
Identifier
42367, 2000-055RK
Orbit
SSO
Country
Flag of USUS
Related business
Manufacturer
Unknown
Mission
Spacecraft
Bus & Motor
Unknown
Mass
Unknown
Launch date (UTC)
2000-09-21 (25 years ago)
Launch vehicle
Unknown
Launch site
Air Force Western Test Range (AFWTR)
Object type
Payload
Rocket body
Debris
Shape & HBR
Unknown shape, 0.1 m
Radar Cross Section
Small (<0.1 m²)

Expand to show TLE details & history
Last TLE update: 1 day ago

TLE from 1 day ago
0 NOAA 16 DEB
1 42367U 00055RK  25299.24652515  .00017167  00000-0  49124-2 0  9993
2 42367  98.8924  49.5667 0016088  84.1452 276.1571 14.45011958493551
Epoch: 2025-10-26T05:54Z
TLE epoch observation values (Epoch: 2025-10-26T05:54:59.772Z)
Latitude
-0.00006°
Longitude
-74.04781°
Altitude
743.719 km
Speed
7.484 km/s
True Right ascension
03h 18m 16s
True Declination
0° 00' 00"
Sunlit
Object was in full shadow at epoch
Visualization orbit readout
Latitude
Unknown
Longitude
Unknown
Altitude
Unknown
Speed
Unknown
Apparent Right ascension
Unknown
Apparent Declination
Unknown
Sunlit
N/A
Visualization observer readout
Local Sidereal Time
07:05:17
Azimuth
Unknown
Elevation
Unknown
Doppler factor
Unknown
Orbital elements
Apogee altitude
750.571 km
Perigee altitude
727.671 km
Semi-major axis
7,117.258 km
Eccentricity
0.00161
Inclination
98.8924°
RAAN
49.5667°
Arg. of periapsis
84.1452°
True anomaly
275.97377°
Mean anomaly
276.1571°
Eccentric anomaly
276.06544°
Mean motion
3.61472 °/min
Orbital period
99.59 mins
BSTAR
0.0049124
Loading maneuver chart data...
Computing Atmospheric mass density...
Loading historical data...
Loading historical data...
Loading historical data...
Loading historical data...
Loading historical data...
Loading historical data...
Loading historical data...

Documentation

Showing up to 5 results
|